KR6C Weather Reports


time (UTC)temp
C
wind
direction
speed
KPH
gust
KPH
rain 1hr
cm
rain 24hr
cm
rain mn
cm
humidity
%
barometer
mb
20260506023007 22 328 1.6 0.0 0.00 0.00 0.00 49 1013.4
20260506020006 23 33 1.6 0.0 0.00 0.00 0.00 45 1013.2
20260506013007 25 314 1.6 0.0 0.00 0.00 0.00 43 1012.8
20260506010006 25 23 9.7 0.0 0.00 0.00 0.00 40 1012.8
20260506003008 26 331 1.6 0.0 0.00 0.00 0.00 37 1012.7
20260506000007 26 333 3.2 0.0 0.00 0.00 0.00 35 1012.8
20260505233008 26 276 0.0 0.0 0.00 0.00 0.00 35 1012.9
20260505230007 26 252 0.0 0.0 0.00 0.00 0.00 41 1013.1
20260505223006 25 4 0.0 0.0 0.00 0.00 0.00 41 1013.5
20260505220010 25 354 0.0 0.0 0.00 0.00 0.00 43 1013.9
20260505213006 25 309 0.0 0.0 0.00 0.00 0.00 46 1014.2
20260505210008 24 103 0.0 0.0 0.00 0.00 0.00 47 1014.8
20260505200011 22 23 4.8 0.0 0.00 0.00 0.00 56 1015.2
20260505193006 21 259 0.0 0.0 0.00 0.00 0.00 56 1015.4
20260505190007 20 188 0.0 0.0 0.00 0.00 0.00 62 1015.7
20260505183006 18 43 0.0 0.0 0.00 0.00 0.00 63 1015.8
20260505180006 16 122 0.0 0.0 0.00 0.00 0.00 70 1015.7
20260505173007 16 345 0.0 0.0 0.00 0.00 0.00 70 1015.8
20260505163007 14 248 0.0 0.0 0.00 0.00 0.00 79 1015.9
20260505153006 13 22 0.0 0.0 0.00 0.00 0.00 81 1016.0
20260505123009 13 253 0.0 0.0 0.00 0.00 0.00 88 1015.1
20260505120006 13 255 0.0 0.0 0.00 0.00 0.00 87 1015.0
20260505113006 13 252 0.0 0.0 0.00 0.00 0.00 88 1014.9
20260505100005 13 255 0.0 0.0 0.00 0.00 0.00 87 1014.7
20260505090005 13 254 0.0 0.0 0.00 0.00 0.00 85 1014.9
20260505083006 13 255 0.0 0.0 0.00 0.00 0.00 85 1015.1
20260505080005 13 255 0.0 0.0 0.00 0.00 0.00 85 1015.2
20260505073005 13 254 0.0 0.0 0.00 0.00 0.00 85 1015.1
20260505063005 12 62 0.0 0.0 0.00 0.00 0.00 87 1014.5
20260505060005 12 62 0.0 0.0 0.00 0.00 0.00 86 1014.2
20260505053004 13 63 0.0 0.0 0.00 0.00 0.00 84 1013.8
20260505040005 15 149 0.0 0.0 0.00 0.00 0.00 76 1012.5
20260505033005 16 148 0.0 0.0 0.00 0.00 0.00 73 1011.7
20260505030005 17 147 0.0 0.0 0.00 0.00 0.00 70 1011.1